Flag for Norway Weather past 2 weeks in Gjøvik, Norway

Now
49 °F

Cool.


Feels Like: 49 °F
Forecast: 51 / 71 °F
Wind: No wind

Location: Lillehammer-Saetherengen

Current Time: Sep 3, 2014 at 7:14:39 AM

Latest Report: Sep 3, 2014 at 6:00 AM


Visibility: N/A

Pressure: 30.30 "Hg

Humidity: 90%

Dew point: 46 °F

Location of GjøvikLocation

Historic Weather in Gjøvik — Graph

°F

Gjøvik temperature yesterday

Maximum temperature yesterday: 65 °F (at 4:00 PM)
Minimum temperature yesterday: 48 °F (at 7:00 AM)
Average temperature yesterday: 55 °F

Past Weeks' High & Low Weather Summary

 TemperatureHumidityPressure
High66 °F (Aug 28, 5:00 PM)95% (Aug 23, 6:00 AM)30.30 "Hg (Aug 23, 6:00 AM)
Low44 °F (Aug 29, 6:00 AM)39% (Aug 26, 5:00 PM)29.21 "Hg (Aug 19, 6:00 AM)
Average54 °F77%29.81 "Hg
* Reported Aug 19 6:00 AM — Sep 3 6:00 AM, Gjøvik, Weather by CustomWeather, © 2014

Note: Actual official high and low records may vary slightly from our data, if they occured in-between our weather recording intervals... More about our weather records

Advertising

Gjøvik weather history for previous 24 hours

 ConditionsComfort  
Time TempWeatherWind HumidityBarometerVisibility
6:00 AM
Sep 3
49 °FCool.No wind90%30.30 "HgN/A
5:00 AM49 °FCool.1 mph90%30.29 "HgN/A
4:00 AM49 °FCool.1 mph91%30.29 "HgN/A
3:00 AM50 °FCool.1 mph90%30.28 "HgN/A
2:00 AM51 °FCool.No wind87%30.27 "HgN/A
1:00 AM53 °FCool.1 mph85%30.25 "HgN/A
12:00 AM53 °FCool.1 mph83%30.24 "HgN/A
11:00 PM
Sep 2
53 °FCool.1 mph84%30.24 "HgN/A
10:00 PM54 °FCool.1 mph82%30.22 "HgN/A
9:00 PM55 °FCool.1 mph80%30.20 "HgN/A
8:00 PM58 °FCool.1 mph75%30.18 "HgN/A
7:00 PM63 °FMild.1 mph66%30.15 "HgN/A
6:00 PM64 °FMild.1 mph67%30.14 "HgN/A
5:00 PM64 °FMild.1 mph69%30.14 "HgN/A
4:00 PM65 °FMild.No wind67%30.14 "HgN/A
3:00 PM62 °FCool.1 mph72%30.15 "HgN/A
2:00 PM62 °FMild.2 mph69%30.15 "HgN/A
1:00 PM61 °FCool.1 mph70%30.16 "HgN/A
12:00 PM56 °FCool.2 mph80%30.17 "HgN/A
11:00 AM56 °FCool.2 mph78%30.17 "HgN/A
10:00 AM53 °FCool.1 mph87%30.17 "HgN/A
9:00 AM51 °FCool.1 mph93%30.17 "HgN/A
8:00 AM50 °FCool.No wind94%30.16 "HgN/A
7:00 AM48 °FCool.1 mph94%30.15 "HgN/A
Weather by CustomWeather, © 2014

See weather overviewHow to use our weather pages